Regional Weather Roundup
Issued by NWS

Home | Current Version | Previous Version | Text Only | Print | Product List | Glossary On
Versions: 1 2 3 4 5 6 7 8 9 10 11 12 13 14 15 16 17 18 19 20 21 22 23 24 25 26 27 28 29 30 31 32 33 34 35 36 37 38 39 40 41 42 43 44 45 46 47 48 49 50
000
ASUS44 KLIX 290713
RWRLA
LOUISIANA WEATHER ROUNDUP
NATIONAL WEATHER SERVICE NEW ORLEANS LA
200 AM CDT WED MAR 29 2017

NOTE: "FAIR" INDICATES FEW OR NO CLOUDS BELOW 12,000 FEET WITH NO
      SIGNIFICANT WEATHER AND/OR OBSTRUCTIONS TO VISIBILITY.
      SKY/WX - SKY CONDITION AND SIGNIFICANT WEATHER.
      TMP - AIR TEMPERATURE.    DP   - DEWPOINT TEMPERATURE.
      RH  - RELATIVE HUMIDITY.  PRES - PRESSURE.
      HX  - HEAT INDEX.         WCI  - WIND CHILL INDEX.

*  THESE STATIONS ARE NOT NWS OR FAA STATIONS AND ARE NOT UNDER
   NWS QUALITY CONTROL.

LAZ040-048-061>063-065-066-069-290800-
SOUTHEAST LOUISIANA

CITY           SKY/WX    TMP DP  RH WIND       PRES   REMARKS
N.O. INTL ARPT PTCLDY    70  68  93 SE8       29.92F
N.O. LAKEFRONT MOCLDY    72  69  90 S10       29.93F
N.O. DOWNTOWN* NOT AVBL
RESERVE*       FAIR      71  69  94 SE6       29.91F
SLIDELL        MOCLDY    73  69  87 S8        29.93S
BATON ROUGE    CLEAR     70  67  90 SE8       29.89F
BOOTHVILLE     PTCLDY    69  69 100 SE6       29.94F
BELLE CHASSE   PTCLDY   N/A N/A N/A S6        29.93F
BOGALUSA*      NOT AVBL
GALLIANO*      PTSUNNY   72  66  83 SE7       29.92F
NEW ROADS*     NOT AVBL
GONZALES*      NOT AVBL
HAMMOND*       CLEAR     68  64  88 SE5       29.92F
HOUMA*         PTCLDY    72  68  89 SE9       29.91F
PORT FOURCHON* SUNNY     73  68  83 SE13      29.92F

$$

LAZ041-044-053-054-290800-
SOUTHWEST LOUISIANA

CITY           SKY/WX    TMP DP  RH WIND       PRES   REMARKS
LAKE CHARLES   CLOUDY    73  68  84 SE20      29.80F
LAFAYETTE      CLEAR     73  69  87 VRB6      29.84F
PATTERSON      CLEAR     71  68  90 SE8       29.90F
SALT POINT       N/A     70  67  90 SE6       29.87F
NEW IBERIA     PTCLDY    70  66  87 SE13      29.86F
CHENAULT AIRPK CLOUDY    71  68  89 SE17G24   29.81F

$$

LAZ027-028-290800-
CENTRAL LOUISIANA

CITY           SKY/WX    TMP DP  RH WIND       PRES   REMARKS
FORT POLK      MOCLDY    70 -35   1 SE13      29.80F
ALEXANDRIA INT LGT RAIN  68  66  93 SE12      29.82F
ALEXANDRIA     CLEAR     67  66  97 SE6       29.85F

$$

LAZ001-002-290800-
NORTHWEST LOUISIANA

CITY           SKY/WX    TMP DP  RH WIND       PRES   REMARKS
SHREVEPORT     MOCLDY    69  63  81 SE7       29.80F
BARKSDALE AFB  CLEAR     66  63  89 SE7       29.80F
DTN SHREVEPORT CLEAR     69  62  78 S8        29.81S

$$

LAZ014-016-290800-
NORTHEAST LOUISIANA

CITY           SKY/WX    TMP DP  RH WIND       PRES   REMARKS
MONROE         CLEAR     70  63  78 S5        29.88S
TALLULAH       CLEAR     67  63  87 SE7       29.89F

$$




USA.gov is the U.S. government's official web portal to all federal, state and local government web resources and services.